Location: College Park
(38.9810°N, 76.9370°W)
Time: 04:57:00
(UTC-05:00)

Tiangong 2 - Pass Details

Date: 07 January 2018
Orbit: 384 x 390 km, 42.8° (Epoch: 17 January)

Event Time Altitude Azimuth Distance (km) Brightness Sun altitude
Rises 17:28:40 0° 273° (W) 2,267 6.3 -5.5°
Reaches altitude 10° 17:32:28 10° 227° (SW) 1,405 5.3 -6.2°
Maximum altitude 17:32:52 10° 219° (SW) 1,393 5.1 -6.3°
Drops below altitude 10° 17:33:17 10° 212° (SSW) 1,403 4.9 -6.4°
Sets 17:37:03 0° 166° (SSE) 2,248 5.1 -7.0°
